Regional Weather Roundup
Issued by NWS Green Bay, WI

Home | Current Version | Previous Version | Graphics & Text | Print | Product List | Glossary Off
Versions: 1 2 3 4 5 6 7 8 9 10 11 12 13 14 15 16 17 18 19 20 21 22 23 24 25 26 27 28 29 30 31 32 33 34 35 36 37 38 39 40 41 42 43 44 45 46 47 48 49 50

000
ASUS43 KGRB 182111
RWRGRB

NORTH-CENTRAL AND NORTHEAST WISCONSIN REGIONAL WEATHER ROUNDUP
NATIONAL WEATHER SERVICE GREEN BAY WI
300 PM CST WED JAN 18 2017

WIZ005-009-010>012-018-019-182200-
NORTH CENTRAL WISCONSIN

CITY           SKY/WX    TMP DP  RH WIND       PRES   REMARKS
IRONWOOD       SUNNY     46  27  47 SW10      29.79R
MANITOWISH WTR SUNNY     41  27  56 SW9       29.79S
ARBOR VITAE    SUNNY     44  28  53 W8        29.80S
EAGLE RIVER    SUNNY     42  26  53 SW10      29.79S
LAND O LAKES   SUNNY     47  25  42 SW5       29.80R
RHINELANDER    SUNNY     40  30  67 SW14      29.82F
PHILLIPS       SUNNY     38  29  70 SW12      29.82S
ANTIGO         SUNNY     34  33  97 SW10      29.86R
TOMAHAWK       SUNNY     38  29  68 SW6       29.84F
MERRILL        SUNNY     39  31  74 W13G22      N/A
$$

WIZ013-073-182200-
NORTHEAST WISCONSIN

CITY           SKY/WX    TMP DP  RH WIND       PRES   REMARKS
IRON MOUNTAIN  SUNNY     45  27  49 SW8       29.78S
MARINETTE      NOT AVBL
OCONTO         SUNNY     37  31  79 SW14G21   29.90R
$$

WIZ017-030-035>037-045-182200-
CENTRAL WISCONSIN

CITY           SKY/WX    TMP DP  RH WIND       PRES   REMARKS
MEDFORD        SUNNY     36  30  78 SW10      29.86F
WAUSAU         SUNNY     39  30  70 SW10      29.87F
MOSINEE        SUNNY     37  32  81 SW12      29.89S
MARSHFIELD     SUNNY     40  30  67 SW7       29.88S
WISC RAPIDS    SUNNY     40  31  70 SW9       29.91F
STEVENS POINT  SUNNY     38  31  73 SW7       29.90S
WAUPACA        SUNNY     44  32  63 SW8       29.92F
SHAWANO        SUNNY     41  32  70 SW8       29.90S
CLINTONVILLE   SUNNY     39  32  75 SW10      29.90F
WAUTOMA        NOT AVBL
$$

WIZ038-039-048-051-182200-
FOX VALLEY

CITY           SKY/WX    TMP DP  RH WIND       PRES   REMARKS
NWS GREEN BAY  SUNNY     37  33  85 SW10      29.91F
APPLETON       MOSUNNY   36  34  93 SW16      29.91F
OSHKOSH        SUNNY     35  30  82 S13G22    29.94F
FOND DU LAC    SUNNY     36  29  75 S16       29.95F
$$

WIZ022-050-052-182200-
EAST CENTRAL WISCONSIN

CITY           SKY/WX    TMP DP  RH WIND       PRES   REMARKS
EPHRAIM        FAIR      37  32  83 SW9       29.85F
WASHINGTON ISL FAIR      36  31  81 SW13      29.86S
STURGEON BAY   SUNNY     37  31  78 SW15      29.89S
MANITOWOC      SUNNY     40  31  70 SW14      29.95R
SHEBOYGAN      SUNNY     37  31  78 SW16      29.96F
$$

LMZ563-521-522-541>543-182200-
LAKESHORE

STATION/POSITION TIME  TEMP    WIND        PRES    VSBY  WAVE
                       AIR SEA DIR/SP/G                  HT/PER
                 (UTC) (F)     (DEG/KT/KT) (MB)    (MI)  (FT/S)
SHEBOYGAN LKSHOR 2100   39     220/ 16/ 18 1014.8F
KEWAUNEE LKSHORE 2048   38     220/ 12/ 15 1012.7F
NORTHPORT PIER   2040   41      CALM  / 11 1011.2S
MENOMINEE LKSHOR 2048          200/ 15/ 20 1010.5F
$$




USA.gov is the U.S. government's official web portal to all federal, state and local government web resources and services.